Home   Weather   Port Coquitlam   Past weeks

Flag for Canada Past Weather in Port Coquitlam, British Columbia, Canada — Yesterday and Last 2 Weeks

Now
54 °F

Cool.


Feels Like: 52 °F
Forecast: 42 / 57 °F
Wind: 7 mph from West

Location: P. Meadows Coastal Station

Current Time: Apr 27, 2017 at 7:56:16 pm

Latest Report: Apr 27, 2017 at 7:00 pm


Visibility: N/A

Pressure: 30.08 "Hg

Humidity: 52%

Dew Point: 36 °F

Location of Port CoquitlamLocation

Past Weather in Port Coquitlam — Graph

°F

Port Coquitlam Temperature Yesterday

Maximum temperature yesterday: 59 °F (at 3:00 pm)
Minimum temperature yesterday: 47 °F (at 4:00 am)
Average temperature yesterday: 52 °F

High & Low Weather Summary for the Past Weeks

 TemperatureHumidityPressure
High68 °F (Apr 21, 6:00 pm)100% (Apr 23, 4:00 am)30.43 "Hg (Apr 23, 4:00 am)
Low36 °F (Apr 16, 5:00 am)26% (Apr 21, 6:00 pm)29.63 "Hg (Apr 12, 11:00 pm)
Average50 °F76%29.97 "Hg
* Reported Apr 12 6:00 pm — Apr 27 6:00 pm, Port Coquitlam, Weather by CustomWeather, © 2017

Note: Actual official high and low records may vary slightly from our data, if they occured in-between our weather recording intervals... More about our weather records

Advertising

Port Coquitlam Weather History for the Previous 24 Hours

Scroll right to see more
 ConditionsComfort  
Time TempWeatherWind HumidityBarometerVisibility
6:00 pm
Thu, Apr 27
54 °FCool.7 mph48%30.07 "HgN/A
5:00 pm55 °FCool.5 mph51%30.06 "HgN/A
4:00 pm56 °FRefreshingly cool.6 mph50%30.06 "HgN/A
3:00 pm54 °FCool.6 mph53%30.06 "HgN/A
2:00 pm54 °FCool.7 mph55%30.05 "HgN/A
1:00 pm54 °FCool.8 mph55%30.05 "HgN/A
12:00 pm53 °FCool.6 mph60%30.04 "HgN/A
11:00 am50 °FCool.7 mph64%30.04 "HgN/A
10:00 am49 °FCool.5 mph75%30.03 "HgN/A
9:00 am48 °FCool.7 mph75%30.02 "HgN/A
8:00 am48 °FCool.5 mph78%30.01 "HgN/A
7:00 am47 °FCool.5 mph80%30.00 "HgN/A
6:00 am47 °FCool.3 mph80%29.98 "HgN/A
5:00 am47 °FCool.3 mph72%29.97 "HgN/A
4:00 am48 °FCool.5 mph72%29.96 "HgN/A
3:00 am49 °FCool.5 mph74%29.95 "HgN/A
2:00 am49 °FCool.7 mph73%29.93 "HgN/A
1:00 am50 °FCool.6 mph74%29.92 "HgN/A
12:00 am50 °FCool.8 mph75%29.90 "HgN/A
11:00 pm
Wed, Apr 26
51 °FCool.6 mph68%29.89 "HgN/A
10:00 pm51 °FCool.6 mph73%29.87 "HgN/A
9:00 pm51 °FCool.8 mph67%29.85 "HgN/A
8:00 pm53 °FCool.5 mph58%29.83 "HgN/A
7:00 pm55 °FRefreshingly cool.6 mph53%29.81 "HgN/A
Weather by CustomWeather, © 2017

See weather overviewHow to use our weather pages